Change the Weather History Date:

Saturday, March 2, 2013

  Actual Average Record
Temperature  
Mean Temperature 5 °F -  
Max Temperature 28 °F 22 °F 41 °F (2001)
Min Temperature -18 °F 4 °F -27 °F (2014)
Degree Days  
Heating Degree Days 60    
Moisture  
Dew Point -14 °F    
Average Humidity 45    
Maximum Humidity 78    
Minimum Humidity 12    
Precipitation  
Precipitation 0.00 in - - ()
Sea Level Pressure  
Sea Level Pressure 30.21 in    
Wind  
Wind Speed 1 mph (NNW)    
Max Wind Speed 7 mph    
Max Gust Speed -    
Visibility 10 miles    
Events      
Averages and records for this station are not official NWS values.
T = Trace of Precipitation, MM = Missing Value Source: NWS Daily Summary

Daily Weather History Graph

Daily Weather History Graph

Search for Another Location

Airport or City:

Trip Planner

Search our weather history database for the weather conditions in past years. The results will help you decide how hot, cold, wet, or windy it might be!

Date:

Astronomy

Mar. 02, 2013 Rise Set
Actual Time 6:49 AM CST 5:57 PM CST
Civil Twilight 6:18 AM CST 6:28 PM CST
Nautical Twilight 5:42 AM CST 7:04 PM CST
Astronomical Twilight 5:06 AM CST 7:41 PM CST
Moon No Moon Rise 8:51 AM CST (3/2)
Length of Visible Light 12h 10m
Length of Day
11h 07m
Waning Gibbous, 74% of the Moon is Illuminated
Mar 2
Waning Gibbous
Mar 4
Last Quarter
Mar 11
New
Mar 19
First Quarter
Mar 27
Full

Hourly Weather History & Observations

Time (CST) Temp. Windchill Dew Point Humidity Pressure Visibility Wind Dir Wind Speed Gust Speed Precip Events Conditions
12:33 AM -4.0 °F - -11.2 °F 71% 30.30 in 10.0 mi Calm Calm - N/A   Clear
12:53 AM -5.8 °F - -11.2 °F 77% 30.30 in 10.0 mi Calm Calm - N/A   Clear
1:13 AM -5.8 °F - -11.2 °F 77% 30.30 in 10.0 mi Calm Calm - N/A   Clear
1:33 AM -4.0 °F - -9.4 °F 78% 30.31 in 10.0 mi Calm Calm - N/A   Clear
1:53 AM -11.2 °F - -16.6 °F 77% 30.30 in 10.0 mi Calm Calm - N/A   Clear
2:13 AM -7.6 °F - -13.0 °F 77% 30.30 in 10.0 mi Calm Calm - N/A   Clear
2:33 AM -5.8 °F - -11.2 °F 77% 30.30 in 10.0 mi Calm Calm - N/A   Clear
2:53 AM -11.2 °F - -16.6 °F 77% 30.30 in 10.0 mi Calm Calm - N/A   Clear
3:13 AM -11.2 °F - -16.6 °F 77% 30.30 in 10.0 mi Calm Calm - N/A   Clear
3:33 AM -11.2 °F - -16.6 °F 77% 30.30 in 10.0 mi Calm Calm - N/A   Clear
3:53 AM -13.0 °F - -18.4 °F 77% 30.29 in 10.0 mi Calm Calm - N/A   Clear
4:13 AM -11.2 °F - -16.6 °F 77% 30.29 in 10.0 mi Calm Calm - N/A   Clear
4:33 AM -13.0 °F - -18.4 °F 77% 30.29 in 10.0 mi Calm Calm - N/A   Clear
4:53 AM -14.8 °F - -20.2 °F 77% 30.29 in 10.0 mi Calm Calm - N/A   Clear
5:13 AM -13.0 °F - -18.4 °F 77% 30.30 in 10.0 mi Calm Calm - N/A   Clear
5:33 AM -16.6 °F - -23.8 °F 70% 30.30 in 10.0 mi Calm Calm - N/A   Clear
5:53 AM -14.8 °F - -20.2 °F 77% 30.30 in 10.0 mi Calm Calm - N/A   Clear
6:13 AM -18.4 °F - -23.8 °F 76% 30.30 in 10.0 mi Calm Calm - N/A   Clear
6:33 AM -18.4 °F - -23.8 °F 76% 30.29 in 10.0 mi Calm Calm - N/A   Clear
6:53 AM -18.4 °F - -23.8 °F 76% 30.30 in 10.0 mi Calm Calm - N/A   Clear
7:13 AM -18.4 °F - -23.8 °F 76% 30.29 in 10.0 mi Calm Calm - N/A   Clear
7:34 AM -18.4 °F - -23.8 °F 76% 30.29 in 10.0 mi Calm Calm - N/A   Clear
7:53 AM -14.8 °F - -20.2 °F 77% 30.28 in 10.0 mi Calm Calm - N/A   Clear
8:13 AM -9.4 °F - -16.6 °F 71% 30.28 in 10.0 mi Calm Calm - N/A   Clear
8:33 AM -5.8 °F - -13.0 °F 71% 30.27 in 10.0 mi Calm Calm - N/A   Clear
8:53 AM -0.4 °F - -11.2 °F 60% 30.26 in 10.0 mi Calm Calm - N/A   Clear
9:13 AM 6.8 °F - -14.8 °F 37% 30.26 in 10.0 mi Calm Calm - N/A   Clear
9:33 AM 10.4 °F - -14.8 °F 31% 30.25 in 10.0 mi Calm Calm - N/A   Clear
9:53 AM 12.2 °F - -14.8 °F 29% 30.25 in 10.0 mi Calm Calm - N/A   Clear
10:13 AM 15.8 °F - -14.8 °F 25% 30.25 in 10.0 mi Calm Calm - N/A   Clear
10:33 AM 17.6 °F - -13.0 °F 25% 30.24 in 10.0 mi Calm Calm - N/A   Clear
10:53 AM 19.4 °F - -13.0 °F 23% 30.24 in 10.0 mi Calm Calm - N/A   Clear
11:13 AM 21.2 °F - -13.0 °F 22% 30.23 in 10.0 mi Calm Calm - N/A   Clear
11:33 AM 23.0 °F - -14.8 °F 18% 30.23 in 10.0 mi Calm Calm - N/A   Clear
11:53 AM 21.2 °F - -11.2 °F 24% 30.23 in 10.0 mi Calm Calm - N/A   Clear
12:14 PM 23.0 °F 17.0 °F -9.4 °F 24% 30.22 in 10.0 mi NW 4.6 mph - N/A   Clear
12:33 PM 24.8 °F 20.5 °F -9.4 °F 22% 30.21 in 10.0 mi WNW 3.5 mph - N/A   Clear
12:53 PM 26.6 °F 22.6 °F -9.4 °F 21% 30.20 in 10.0 mi West 3.5 mph - N/A   Clear
1:13 PM 24.8 °F 16.9 °F -7.6 °F 24% 30.19 in 10.0 mi WNW 6.9 mph - N/A   Clear
1:33 PM 24.8 °F 19.1 °F -9.4 °F 22% 30.19 in 10.0 mi WNW 4.6 mph - N/A   Clear
1:53 PM 26.6 °F 20.0 °F -9.4 °F 21% 30.18 in 10.0 mi West 5.8 mph - N/A   Clear
2:13 PM 24.8 °F 17.9 °F -7.6 °F 24% 30.19 in 10.0 mi NW 5.8 mph - N/A   Clear
2:33 PM 24.8 °F - -13.0 °F 19% 30.18 in 10.0 mi Calm Calm - N/A   Clear
2:53 PM 26.6 °F 22.6 °F -11.2 °F 19% 30.18 in 10.0 mi NW 3.5 mph - N/A   Clear
3:14 PM 26.6 °F - -11.2 °F 19% 30.17 in 10.0 mi Calm Calm - N/A   Clear
3:33 PM 28.4 °F - -14.8 °F 15% 30.16 in 10.0 mi Calm Calm - N/A   Scattered Clouds
3:53 PM 28.4 °F - -14.8 °F 15% 30.16 in 10.0 mi Calm Calm - N/A   Clear
4:13 PM 28.4 °F - -16.6 °F 13% 30.15 in 10.0 mi Calm Calm - N/A   Clear
4:33 PM 28.4 °F - -16.6 °F 13% 30.15 in 10.0 mi Calm Calm - N/A   Clear
4:53 PM 28.4 °F 24.6 °F -18.4 °F 12% 30.15 in 10.0 mi ESE 3.5 mph - N/A   Clear
5:13 PM 26.6 °F - -16.6 °F 14% 30.15 in 10.0 mi Calm Calm - N/A   Scattered Clouds
5:33 PM 26.6 °F - -16.6 °F 14% 30.15 in 10.0 mi Calm Calm - N/A   Clear
5:53 PM 24.8 °F - -11.2 °F 20% 30.14 in 10.0 mi Calm Calm - N/A   Clear
6:13 PM 23.0 °F - -13.0 °F 20% 30.15 in 10.0 mi Calm Calm - N/A   Clear
6:33 PM 21.2 °F 16.4 °F -14.8 °F 20% 30.14 in 10.0 mi ESE 3.5 mph - N/A   Clear
6:53 PM 19.4 °F - -14.8 °F 21% 30.14 in 10.0 mi Calm Calm - N/A   Clear
7:13 PM 19.4 °F - -16.6 °F 20% 30.14 in 10.0 mi Calm Calm - N/A   Clear
7:33 PM 19.4 °F - -16.6 °F 20% 30.14 in 10.0 mi Calm Calm - N/A   Clear
7:53 PM 15.8 °F - -9.4 °F 32% 30.14 in 10.0 mi Calm Calm - N/A   Clear
8:13 PM 15.8 °F - -9.4 °F 32% 30.13 in 10.0 mi Calm Calm - N/A   Clear
8:33 PM 8.6 °F - -7.6 °F 48% 30.13 in 10.0 mi Calm Calm - N/A   Clear
8:53 PM 8.6 °F - -7.6 °F 48% 30.13 in 10.0 mi Calm Calm - N/A   Clear
9:13 PM 6.8 °F - -5.8 °F 56% 30.13 in 10.0 mi Calm Calm - N/A   Mostly Cloudy
9:33 PM 6.8 °F - -4.0 °F 61% 30.12 in 10.0 mi Calm Calm - N/A   Scattered Clouds
9:53 PM 5.0 °F - -5.8 °F 61% 30.12 in 10.0 mi Calm Calm - N/A   Clear
10:13 PM 5.0 °F - -5.8 °F 61% 30.12 in 10.0 mi Calm Calm - N/A   Clear
10:33 PM 10.4 °F 4.0 °F -7.6 °F 44% 30.11 in 10.0 mi ESE 3.5 mph - N/A   Scattered Clouds
10:53 PM 12.2 °F 6.1 °F -14.8 °F 29% 30.10 in 10.0 mi ESE 3.5 mph - N/A   Overcast
11:13 PM 12.2 °F 6.1 °F -11.2 °F 34% 30.10 in 10.0 mi ESE 3.5 mph - N/A   Overcast
11:33 PM 14.0 °F 6.5 °F -7.6 °F 38% 30.10 in 10.0 mi ESE 4.6 mph - N/A   Overcast
11:53 PM 12.2 °F 6.1 °F -2.2 °F 53% 30.10 in 10.0 mi ESE 3.5 mph - N/A   Scattered Clouds